Probability
0 0 0 0 0 0 0 0 0 0 0 0 0 0 0 0 0 0 0 0 0 0 0 0 0 0 0 0 0 0 0 0 0 0 0 0 0 0 1 0 0 0 0 0 0 0 0 0 0
0 0 0 0 0 0 0 0 0 0 0 0 0 0 0 0 0 0 0 0 0 0 0 0 0 0 0 0 0 0 0 0 0 0 0 0 0 0 1 0 0 0 0 0 0 0 0 0 0
0 0 0 0 0 0 0 0 0 0 0 0 0 0 0 0 0 0 0 0 0 0 0 0 0 0 0 0 0 0 0 0 0 0 0 0 0 0 0 0 0 0 0 0 0 0 0 0 0
0 0 0 0 0 0 0 0 0 0 0 0 0 0 0 0 0 0 0 0 0 0 0 0 0 0 0 0 0 0 0 0 0 0 0 0 0 0 0 0 0 0 0 0 0 0 0 0 0
0 0 0 0 0 0 0 0 0 0 0 0 0 0 0 0 0 0 0 0 0 0 0 0 0 0 0 0 0 0 0 0 0 0 0 0 0 0 0 0 0 0 0 0 0 0 0 0 0
0 0 0 0 0 0 0 0 0 0 0 0 0 0 0 0 0 0 0 0 0 0 0 0 0 0 0 0 0 0 0 0 0 0 0 0 0 0 0 0 0 0 0 0 0 0 0 0 0
0 0 0 0 0 0 0 0 0 0 0 0 0 0 0 0 0 0 0 0 0 0 0 0 0 0 0 0 0 0 0 0 0 0 0 0 0 0 0 0 0 0 0 0 0 0 0 0 0
0 0 0 0 0 0 0 0 0 0 0 0 0 0 0 0 0 0 0 0 0 0 0 0 0 0 0 0 0 0 0 0 0 0 0 0 0 0 0 0 0 0 0 0 0 0 0 0 0
0 0 0 0 0 0 0 0 0 0 0 0 0 0 0 0 0 0 0 0 0 0 0 0 0 0 0 0 0 0 0 0 0 0 1 0 0 0 0 0 0 0 0 0 0 0 0 0 0
0 0 0 0 0 0 0 0 0 0 0 0 0 0 1 1 0 0 0 0 0 0 0 0 0 0 0 0 0 0 0 0 0 0 0 0 0 0 0 0 0 0 0 0 0 0 0 0 0
0 0 0 0 0 0 0 0 0 0 0 0 1 4 8 6 2 0 0 0 0 0 0 0 0 0 0 0 0 0 0 0 0 0 0 0 0 0 0 0 0 0 0 0 0 0 0 0 0
0 0 0 0 0 0 0 0 0 0 0 0 3 15 26 20 7 1 0 0 0 0 0 0 0 0 0 0 0 0 0 0 0 0 0 0 0 0 0 0 0 0 0 0 0 0 0 0 0
0 0 0 0 0 0 0 0 0 0 0 1 10 30 47 41 22 8 3 1 1 0 0 0 0 0 0 0 0 0 0 0 0 0 0 0 0 0 0 0 0 0 0 0 0 0 0 0 0
0 0 0 0 0 0 0 0 0 0 0 3 17 41 59 60 45 28 18 12 6 2 0 0 0 0 0 0 0 0 0 0 0 0 0 0 0 0 0 0 0 0 0 0 0 0 0 0 0
0 0 0 0 0 0 0 0 0 0 0 4 19 41 59 66 63 54 46 37 24 12 5 2 2 1 0 0 0 0 0 0 0 0 0 0 0 0 0 0 0 0 0 0 0 0 0 0 0
0 0 0 0 0 0 0 0 0 0 1 4 13 31 48 58 64 68 68 64 51 34 19 12 9 7 4 3 3 3 2 1 0 0 0 0 1 1 1 0 0 0 0 0 0 0 0 0 0
0 0 0 0 0 0 0 0 0 0 1 4 11 24 37 45 54 63 70 73 70 59 45 36 30 23 17 14 12 10 8 6 4 2 3 3 3 3 2 1 0 0 0 0 0 0 0 0 0
0 0 0 0 0 0 0 2 3 3 3 8 16 27 37 41 46 54 62 68 71 70 68 65 60 52 44 40 34 27 21 15 9 7 7 7 7 6 3 1 0 0 1 2 2 1 0 0 0
0 0 0 0 0 0 1 4 7 8 10 16 28 41 49 50 51 54 58 61 63 67 73 77 77 74 71 69 64 54 43 32 23 19 16 13 12 11 7 3 1 2 4 5 5 3 1 0 1
0 0 0 0 0 0 1 3 6 9 15 24 37 49 55 54 52 52 53 54 55 57 62 70 75 77 79 81 80 75 64 53 46 39 31 24 20 19 14 7 3 3 5 6 5 3 1 1 1
0 0 0 0 0 0 0 1 3 6 11 22 32 38 41 41 40 39 41 44 47 49 50 57 64 68 73 78 81 79 73 66 60 53 42 31 25 23 18 10 6 5 6 6 5 3 2 2 2
0 0 0 0 0 0 0 0 1 2 5 11 16 18 20 22 23 24 26 30 36 40 42 45 52 59 66 73 76 75 70 64 59 51 41 28 21 20 18 12 8 7 6 5 4 3 3 3 4
0 0 0 0 0 0 0 0 0 0 1 3 5 6 7 9 12 14 15 18 22 27 32 37 44 52 58 63 65 65 61 54 46 39 32 21 13 13 13 9 7 6 4 3 2 2 2 2 3
0 0 0 0 0 0 0 0 0 0 0 1 1 2 3 3 5 6 7 8 11 15 22 30 37 43 48 50 51 51 48 41 33 26 21 13 8 8 7 5 4 3 2 1 0 0 0 1 1
0 0 0 0 0 0 0 0 0 0 0 0 0 1 1 1 1 1 2 3 4 6 13 22 28 32 36 37 37 38 35 29 23 18 13 9 6 5 4 3 2 1 1 0 0 0 0 0 0
0 0 0 0 0 0 0 0 0 0 0 0 0 0 0 0 0 0 0 1 1 3 7 13 18 22 26 27 27 26 23 17 12 10 7 6 5 3 2 1 1 0 0 0 0 0 0 0 0
0 0 0 0 0 0 0 0 0 0 0 0 0 0 0 0 0 0 0 0 0 2 3 6 11 15 18 21 20 16 11 6 3 2 2 2 1 1 0 0 0 0 0 0 0 0 0 0 0
0 0 0 0 0 0 0 0 0 0 0 0 0 0 0 0 0 0 0 0 0 1 2 4 7 10 12 12 12 7 3 1 0 0 0 0 0 0 0 0 0 0 0 0 0 0 0 0 0
0 0 0 0 0 0 0 0 0 0 0 0 0 0 0 0 0 0 0 0 0 0 1 3 4 6 7 5 4 2 1 0 0 0 0 0 0 0 0 0 0 0 0 0 0 0 0 0 0
0 0 0 0 0 0 0 0 0 0 0 0 0 0 0 0 0 0 0 0 0 0 0 1 3 4 4 2 1 0 0 0 0 0 0 0 0 0 0 0 0 0 0 0 0 0 0 0 0
Wind_Speed
3 1 3 2 2 4 3 2 0 2 1 1 5 3 6 4 4 3 2 11 14 14 11 15 18 17 16 15 14 14 13 13 13 13 13 13 13 12 12 11 10 9 9 8 8 7 7 7 7
1 2 2 2 3 3 4 3 2 2 4 5 5 4 5 2 3 5 5 7 15 14 11 12 18 18 16 15 14 13 13 13 12 12 12 11 11 11 11 10 10 9 8 8 7 7 6 6 6
2 2 3 4 3 1 3 2 2 4 4 3 4 4 3 4 6 6 6 11 12 11 9 13 20 18 17 15 14 13 13 12 12 11 11 10 10 10 10 9 8 8 7 7 6 5 5 5 5
2 3 4 5 2 3 3 2 3 5 3 4 5 5 3 3 6 7 12 13 12 9 8 13 20 18 17 16 15 14 13 12 12 11 10 10 9 9 8 8 7 6 6 5 4 4 4 4 4
3 4 5 4 4 5 4 3 5 3 2 3 5 5 2 3 8 13 15 14 13 9 8 11 19 18 17 16 15 14 13 12 12 11 10 9 9 8 8 7 6 6 5 4 4 4 4 4 4
4 5 5 3 6 6 3 1 4 2 2 3 5 5 2 4 12 13 13 11 10 10 8 9 18 18 17 17 16 15 14 13 12 11 10 9 8 8 7 6 6 5 5 4 4 4 5 5 5
4 4 2 1 5 5 5 2 4 3 2 4 6 6 2 5 9 12 10 9 8 7 7 7 9 12 16 16 16 15 14 13 12 11 10 9 8 8 7 6 6 6 6 5 6 6 6 6 6
4 5 2 1 2 4 5 3 2 3 1 4 5 8 7 7 9 9 8 7 7 6 6 6 6 6 7 9 15 15 14 13 12 11 10 10 9 8 8 7 6 7 7 7 7 8 8 8 8
4 5 1 2 1 4 4 4 2 3 4 2 3 6 7 15 15 12 9 7 8 8 6 5 6 6 6 6 10 12 13 12 11 9 11 9 4 4 4 6 8 9 9 9 9 9 9 9 9
5 3 4 3 2 4 5 3 1 2 2 2 2 5 14 18 16 15 15 15 15 13 11 6 7 6 6 6 5 4 4 5 5 4 4 3 3 3 4 5 9 10 11 11 11 11 10 8 4
3 4 3 4 4 3 4 4 2 5 6 8 8 13 20 18 16 16 16 15 15 13 12 10 8 6 6 4 3 3 2 3 3 4 4 3 2 2 3 2 4 5 7 5 6 6 4 4 4
1 3 4 4 3 3 4 3 2 6 10 7 10 19 23 21 19 18 17 15 11 10 12 10 9 7 7 5 3 4 3 3 3 4 5 3 2 3 3 3 3 3 3 4 4 3 5 5 6
2 4 4 5 7 5 4 4 4 7 6 4 13 17 21 20 18 14 13 12 12 13 12 11 10 9 7 6 4 4 4 4 4 4 4 5 4 4 4 4 3 4 4 4 4 4 5 6 6
3 4 6 7 5 3 2 4 2 7 2 9 15 17 18 17 16 13 13 13 13 13 13 11 11 10 8 6 5 4 5 4 4 5 6 6 5 5 4 4 4 5 4 4 4 5 5 5 5
2 4 6 4 3 2 2 5 4 4 5 9 12 13 13 12 13 15 15 13 13 13 12 11 12 10 9 9 8 6 5 5 5 6 6 7 7 6 5 5 5 5 4 4 4 4 4 4 4
3 4 4 7 4 4 2 5 8 2 6 9 10 11 11 11 13 12 11 10 10 10 10 11 11 11 11 9 8 6 6 6 6 6 6 8 8 8 6 5 6 5 3 3 3 3 3 4 4
6 3 3 7 4 3 3 6 10 3 6 9 10 10 11 9 9 9 9 10 10 10 10 11 10 11 11 10 7 7 6 6 6 6 6 7 9 8 7 6 5 4 3 3 3 3 3 3 4
2 2 4 6 6 5 4 5 9 5 5 8 8 8 8 9 8 5 5 7 7 8 9 9 10 9 9 7 5 4 5 5 5 6 7 8 7 8 7 6 6 5 4 4 3 4 3 3 3
2 2 6 8 6 3 4 5 8 8 4 2 2 3 3 3 0 2 1 3 4 5 7 8 8 8 6 5 5 5 4 4 4 5 7 7 7 8 7 6 5 5 5 5 4 3 3 3 2
3 3 5 7 5 2 3 4 5 9 8 5 4 3 2 2 3 2 2 1 2 3 4 5 7 7 6 6 5 3 3 3 3 4 5 6 7 7 6 6 5 5 4 4 3 3 2 2 1
2 3 4 5 5 5 4 6 6 6 9 12 11 8 7 5 3 2 2 1 1 2 3 4 5 6 6 6 3 1 1 1 2 3 3 4 5 5 5 5 4 4 4 3 4 4 4 2 2
2 3 4 3 2 4 3 3 5 5 8 10 10 9 8 7 5 3 3 2 2 2 2 3 4 6 6 6 6 6 5 5 5 4 3 3 4 5 4 4 5 4 4 4 3 3 3 3 2
2 2 2 2 1 2 3 1 6 4 5 6 7 7 6 6 5 5 5 4 3 2 2 3 4 5 5 5 6 6 6 5 3 2 3 3 3 3 4 4 4 4 3 3 3 2 3 3 3
1 4 5 5 4 1 2 1 5 1 2 3 4 5 6 6 6 6 5 4 4 3 2 2 3 4 4 4 4 6 6 6 5 5 4 3 2 2 3 3 3 3 3 3 2 2 2 2 3
7 6 6 7 5 5 4 2 7 3 2 2 3 5 6 6 6 7 7 7 6 6 4 3 3 4 4 4 5 6 7 8 8 7 6 4 3 2 3 3 3 2 2 2 1 1 1 1 2
1 5 5 3 4 5 5 5 5 3 3 3 4 5 5 6 6 7 7 7 7 7 6 5 5 5 4 4 4 5 5 5 4 5 4 4 3 3 4 4 4 3 3 2 2 1 0 0 1
3 2 3 5 1 3 6 6 6 3 4 6 6 6 7 6 6 6 6 6 7 7 7 6 5 4 4 3 1 1 3 4 3 4 4 4 4 4 5 5 4 4 3 3 3 2 1 1 1
3 6 5 3 1 4 6 5 5 6 8 8 8 8 8 6 5 5 5 5 6 6 6 6 5 4 2 2 1 2 2 3 5 6 6 6 5 5 6 5 5 5 4 4 3 2 2 2 2
2 3 5 4 4 4 4 9 7 7 7 8 10 9 7 6 6 5 4 4 4 5 5 5 5 4 3 1 2 3 4 6 7 7 7 6 6 6 6 5 5 5 5 4 4 3 3 3 4
3 5 7 4 4 5 3 11 7 7 7 7 9 7 6 6 5 4 4 4 4 5 5 5 5 4 3 3 3 4 5 6 7 7 6 6 6 6 6 6 6 5 5 4 4 4 4 4 4
Wind_Direction
260 206 142 144 78 43 10 344 149 97 56 115 136 130 132 135 176 195 119 143 141 148 157 160 158 156 153 148 143 141 140 139 137 137 138 140 142 145 147 148 147 145 141 135 129 125 123 124 125
232 156 126 81 68 33 333 336 42 140 146 112 94 81 85 97 78 107 132 146 145 148 154 158 160 159 158 154 152 150 149 146 144 142 142 144 146 149 151 151 151 149 146 143 141 138 137 137 138
220 163 92 68 70 147 299 325 73 111 144 113 89 72 102 153 140 142 152 143 139 146 151 163 162 162 162 161 161 160 157 153 150 149 148 149 151 153 154 154 155 154 154 154 154 154 154 155 158
122 54 53 62 12 246 239 237 160 140 127 79 104 89 75 136 153 146 141 143 141 145 153 168 163 165 166 167 168 168 164 161 158 157 156 156 156 158 158 160 163 166 170 175 178 184 187 189 190
68 74 51 25 312 280 261 206 160 150 117 101 114 105 61 60 116 135 143 149 150 152 161 170 166 168 170 171 172 173 172 169 167 166 164 164 163 166 168 171 175 182 191 201 208 216 223 226 227
54 60 64 349 316 307 320 158 139 112 109 119 118 111 109 131 137 149 149 151 154 158 162 168 171 172 173 175 176 178 178 177 175 175 173 173 174 176 180 184 190 199 209 219 228 237 243 244 247
94 85 115 296 307 326 356 23 119 117 140 166 136 111 126 165 159 150 144 141 147 156 159 167 171 174 177 179 181 182 183 182 182 182 182 183 186 190 195 200 208 216 223 233 242 250 255 257 258
115 98 90 305 305 316 335 0 101 120 170 138 131 148 181 183 151 136 127 132 147 156 164 168 169 171 174 180 186 186 187 187 187 188 190 193 197 202 209 213 225 233 240 245 252 258 263 267 267
87 78 171 232 279 308 336 3 20 115 125 175 180 173 171 145 143 138 138 149 169 177 179 174 172 172 170 176 190 189 191 192 193 196 200 199 201 211 226 233 239 248 254 258 260 263 266 269 271
86 130 221 230 255 299 314 324 283 132 153 211 83 101 132 146 154 160 167 174 183 189 190 186 181 176 171 183 184 178 183 186 188 184 199 187 184 212 232 255 259 263 266 267 267 266 268 271 268
128 183 230 255 262 281 298 303 263 163 216 216 189 156 151 161 168 175 180 184 189 189 190 192 188 180 178 181 168 167 167 171 182 188 193 188 191 218 244 258 270 276 281 279 279 280 272 267 265
193 230 229 259 271 283 261 276 270 199 224 216 175 161 161 173 180 184 185 188 186 186 195 192 189 184 185 182 178 175 176 180 190 196 195 190 203 219 232 244 253 257 259 263 264 263 266 269 270
246 266 267 262 283 259 254 252 247 248 256 149 147 162 174 181 186 190 189 187 186 192 195 192 189 190 188 186 189 187 192 196 199 198 201 199 208 223 230 243 247 250 246 246 252 257 264 269 274
272 279 291 284 282 269 254 282 246 269 157 143 157 175 184 187 186 187 190 192 192 195 196 191 193 193 188 192 195 196 198 202 203 210 212 208 213 220 226 240 243 245 239 236 241 250 259 268 272
291 315 326 315 315 307 347 325 270 274 148 162 174 180 186 191 190 196 196 196 195 196 194 192 195 192 192 197 201 203 201 200 211 221 218 214 214 219 222 232 240 242 233 234 240 249 252 263 267
27 32 346 308 321 335 37 298 284 271 171 183 184 185 190 197 201 201 197 197 195 193 193 196 199 195 198 201 202 206 203 204 214 219 218 218 216 216 217 226 236 232 220 221 230 238 247 257 264
22 17 330 313 314 1 34 282 290 296 197 198 194 193 194 198 207 206 200 197 197 197 194 194 199 197 200 203 203 207 206 211 219 218 217 219 217 213 210 222 227 215 214 220 231 228 225 255 270
313 337 322 303 301 344 334 290 310 327 225 216 205 200 197 201 211 198 194 197 199 200 199 198 201 202 197 197 200 209 214 219 221 221 221 216 214 209 206 216 215 204 208 217 219 231 229 242 263
217 284 295 282 291 311 307 319 334 353 353 293 231 198 198 214 7 54 184 205 204 205 200 198 201 204 191 185 190 201 213 215 219 224 221 215 211 207 203 211 206 202 210 217 213 216 237 249 230
225 282 290 296 323 347 319 337 358 25 27 26 37 37 23 28 33 27 18 342 227 222 213 206 206 204 201 200 190 190 188 203 215 217 211 209 208 206 204 207 206 204 210 218 211 199 217 244 202
245 218 253 278 325 15 13 350 6 17 30 35 34 33 30 21 9 4 351 329 305 249 223 220 215 209 208 200 174 150 146 176 202 219 215 207 200 202 196 200 205 201 203 219 217 204 207 234 235
303 267 249 275 12 325 19 307 322 1 27 29 22 18 14 8 5 350 338 334 302 263 220 211 215 210 208 195 191 191 204 217 220 217 215 209 201 198 195 196 196 195 198 210 217 205 203 208 240
266 347 23 13 123 352 1 241 290 353 13 13 6 2 360 355 350 340 336 325 310 296 258 223 214 216 213 203 203 207 222 226 221 226 215 213 203 193 186 195 188 184 187 198 201 197 201 202 221
26 50 45 44 63 342 293 267 277 307 321 321 330 335 336 337 337 334 332 329 323 320 312 275 233 221 211 202 206 214 226 234 220 220 212 203 181 170 163 173 171 168 173 194 194 198 214 222 233
51 60 13 354 5 263 285 255 244 224 226 251 273 292 306 316 323 327 332 336 333 325 315 297 273 254 228 207 208 213 218 225 219 213 201 188 177 169 161 151 150 148 157 163 159 168 216 239 249
70 130 155 231 244 281 310 256 252 218 224 245 257 271 288 297 306 312 318 326 328 325 319 306 288 278 269 237 220 213 213 222 219 199 178 168 162 148 142 133 125 123 121 117 110 101 22 320 289
133 136 159 146 230 273 281 293 294 221 245 255 260 265 270 278 290 300 310 320 323 324 319 311 299 292 284 268 244 223 212 190 171 138 125 125 119 115 111 108 103 93 90 89 91 77 34 2 342
90 140 97 117 219 277 291 281 253 238 244 252 257 260 264 274 283 294 305 316 319 321 322 327 326 317 313 297 246 152 130 117 111 107 103 100 96 97 101 98 95 90 83 80 81 70 42 50 28
108 101 109 123 160 180 271 271 234 224 232 243 254 255 259 268 274 282 295 303 315 331 337 339 340 349 356 15 87 103 102 102 99 97 97 99 96 96 96 99 95 88 78 71 74 63 51 50 37
207 181 151 162 223 190 210 268 259 237 247 249 261 266 261 261 266 276 296 316 334 342 345 350 350 6 19 46 84 93 95 97 97 99 102 105 102 98 101 101 93 86 76 69 69 62 53 51 43